DAJAN EGPF-BIAR

Flight info

Callsign DAJAN
Flight time 1h 44m
Altitude 38000
Route LOMON DCT STN DCT ELKOG/M082F380 DCT ING DCT PEXIL
Aircraft CL60/M-SBDE1E2E3FGHIJ1J4J5J7M3RWXYZ/LB1V1D1

Departure

Time 2026-05-07 17:12
Airport Glasgow Airport (EGPF)

Arrival

Time 2026-05-07 18:56
Airport Akureyri International Airport (BIAR)
Time Latitude Longitude Altitude Speed Heading
2026-05-07 16:42 55.86940 -4.43178 28 ft 0 kts 75°
2026-05-07 17:00 55.86937 -4.43197 28 ft 2 kts 74°
2026-05-07 17:01 55.86932 -4.43222 28 ft 2 kts 73°
2026-05-07 17:01 55.86928 -4.43248 28 ft 2 kts 73°
2026-05-07 17:01 55.86926 -4.43274 28 ft 2 kts 103°
2026-05-07 17:01 55.86933 -4.43295 28 ft 2 kts 144°
2026-05-07 17:02 55.86942 -4.43302 28 ft 0 kts 165°
2026-05-07 17:07 55.86939 -4.43301 28 ft 3 kts 165°
2026-05-07 17:07 55.86895 -4.43277 28 ft 9 kts 163°
2026-05-07 17:07 55.86826 -4.43225 28 ft 7 kts 122°
2026-05-07 17:07 55.86834 -4.43113 28 ft 11 kts 71°
2026-05-07 17:08 55.86869 -4.42965 28 ft 14 kts 41°
2026-05-07 17:08 55.86965 -4.42879 28 ft 14 kts 26°
2026-05-07 17:08 55.87072 -4.42802 28 ft 18 kts 20°
2026-05-07 17:08 55.87204 -4.42712 28 ft 21 kts 24°
2026-05-07 17:09 55.87315 -4.42637 27 ft 18 kts 19°
2026-05-07 17:09 55.87433 -4.42507 27 ft 22 kts 46°
2026-05-07 17:09 55.87534 -4.42318 26 ft 19 kts 47°
2026-05-07 17:09 55.87587 -4.42219 26 ft 12 kts 47°
2026-05-07 17:10 55.87671 -4.42145 26 ft 14 kts 358°
2026-05-07 17:10 55.87754 -4.42230 26 ft 10 kts 308°
2026-05-07 17:10 55.87750 -4.42289 26 ft 0 kts 225°
2026-05-07 17:11 55.87694 -4.42391 26 ft 45 kts 226°
2026-05-07 17:12 55.87232 -4.43250 28 ft 141 kts 226°
2026-05-07 17:12 55.86470 -4.44678 708 ft 169 kts 225°
2026-05-07 17:12 55.85652 -4.46270 1640 ft 189 kts 226°
2026-05-07 17:12 55.84703 -4.48104 2469 ft 222 kts 225°
2026-05-07 17:13 55.83595 -4.50170 3364 ft 239 kts 225°
2026-05-07 17:13 55.82409 -4.52299 4387 ft 252 kts 224°
2026-05-07 17:13 55.81147 -4.54480 5414 ft 259 kts 224°
2026-05-07 17:13 55.80054 -4.57049 5859 ft 262 kts 246°
2026-05-07 17:14 55.79899 -4.60313 6174 ft 289 kts 282°
2026-05-07 17:14 55.80972 -4.63358 7731 ft 301 kts 312°
2026-05-07 17:14 55.82715 -4.65460 8920 ft 310 kts 334°
2026-05-07 17:14 55.84808 -4.66067 10116 ft 317 kts
2026-05-07 17:15 55.86820 -4.64892 11782 ft 314 kts 30°
2026-05-07 17:15 55.88477 -4.62460 13184 ft 315 kts 44°
2026-05-07 17:15 55.90207 -4.60168 14315 ft 319 kts 22°
2026-05-07 17:15 55.92417 -4.59222 14954 ft 341 kts
2026-05-07 17:16 55.94859 -4.58997 15576 ft 362 kts
2026-05-07 17:16 55.97401 -4.58757 16504 ft 373 kts
2026-05-07 17:16 56.00016 -4.58499 17480 ft 380 kts
2026-05-07 17:16 56.02661 -4.58233 18461 ft 386 kts
2026-05-07 17:17 56.05347 -4.58113 19354 ft 390 kts 353°
2026-05-07 17:17 56.07978 -4.59170 20248 ft 390 kts 336°
2026-05-07 17:17 56.10502 -4.60943 21076 ft 395 kts 334°
2026-05-07 17:17 56.13063 -4.62754 21880 ft 400 kts 334°
2026-05-07 17:18 56.15662 -4.64589 22650 ft 406 kts 334°
2026-05-07 17:18 56.18307 -4.66459 23406 ft 411 kts 334°
2026-05-07 17:18 56.20989 -4.68358 24155 ft 416 kts 334°
2026-05-07 17:18 56.23692 -4.70274 24880 ft 421 kts 334°
2026-05-07 17:19 56.26432 -4.72221 25529 ft 427 kts 334°
2026-05-07 17:19 56.29205 -4.74193 26162 ft 432 kts 334°
2026-05-07 17:19 56.31980 -4.76170 26721 ft 438 kts 334°
2026-05-07 17:19 56.34830 -4.78202 27321 ft 442 kts 334°
2026-05-07 17:20 56.37711 -4.80261 27874 ft 447 kts 334°
2026-05-07 17:20 56.40586 -4.82318 28406 ft 451 kts 334°
2026-05-07 17:20 56.43521 -4.84421 28995 ft 453 kts 334°
2026-05-07 17:20 56.46419 -4.86500 29646 ft 454 kts 334°
2026-05-07 17:21 56.49355 -4.88610 30322 ft 453 kts 334°
2026-05-07 17:21 56.52284 -4.90719 30984 ft 452 kts 334°
2026-05-07 17:21 56.55211 -4.92833 31602 ft 451 kts 334°
2026-05-07 17:21 56.58143 -4.94954 32178 ft 451 kts 334°
2026-05-07 17:22 56.61084 -4.97086 32746 ft 450 kts 334°
2026-05-07 17:22 56.64036 -4.99228 33268 ft 450 kts 334°
2026-05-07 17:22 56.66965 -5.01358 33750 ft 450 kts 334°
2026-05-07 17:22 56.69874 -5.03476 34220 ft 450 kts 334°
2026-05-07 17:23 56.72848 -5.05644 34733 ft 449 kts 334°
2026-05-07 17:23 56.75727 -5.07747 35107 ft 450 kts 334°
2026-05-07 17:23 56.78631 -5.09871 35455 ft 448 kts 333°
2026-05-07 17:23 56.81523 -5.11988 35782 ft 445 kts 334°
2026-05-07 17:24 56.84390 -5.14090 36082 ft 441 kts 333°
2026-05-07 17:24 56.87233 -5.16179 36363 ft 439 kts 334°
2026-05-07 17:24 56.90037 -5.18244 36720 ft 437 kts 334°
2026-05-07 17:24 56.92850 -5.20318 37074 ft 435 kts 333°
2026-05-07 17:25 56.95646 -5.22383 37445 ft 432 kts 334°
2026-05-07 17:25 56.98419 -5.24434 37735 ft 432 kts 333°
2026-05-07 17:25 57.04086 -5.28645 37817 ft 444 kts 334°
2026-05-07 17:26 57.09874 -5.32958 37819 ft 458 kts 334°
2026-05-07 17:26 57.15880 -5.37444 37813 ft 469 kts 334°
2026-05-07 17:27 57.22004 -5.42035 37831 ft 478 kts 334°
2026-05-07 17:27 57.28192 -5.46691 37824 ft 486 kts 334°
2026-05-07 17:28 57.34496 -5.51448 37818 ft 490 kts 334°
2026-05-07 17:28 57.40820 -5.56236 37806 ft 491 kts 334°
2026-05-07 17:29 57.47194 -5.61081 37801 ft 490 kts 334°
2026-05-07 17:29 57.50380 -5.63508 37941 ft 490 kts 334°
2026-05-07 17:29 57.53502 -5.65894 37826 ft 492 kts 333°
2026-05-07 17:30 57.59829 -5.70738 37791 ft 488 kts 333°
2026-05-07 17:30 57.66144 -5.75594 37798 ft 488 kts 333°
2026-05-07 17:31 57.72425 -5.80442 37799 ft 489 kts 333°
2026-05-07 17:31 57.78715 -5.85315 37800 ft 490 kts 333°
2026-05-07 17:32 57.85027 -5.90223 37799 ft 490 kts 333°
2026-05-07 17:32 57.91297 -5.95118 37791 ft 491 kts 333°
2026-05-07 17:33 57.97606 -6.00062 37785 ft 492 kts 333°
2026-05-07 17:33 58.03897 -6.05009 37794 ft 492 kts 333°
2026-05-07 17:34 58.10199 -6.09986 37776 ft 492 kts 333°
2026-05-07 17:34 58.16517 -6.14993 37789 ft 491 kts 333°
2026-05-07 17:35 58.22520 -6.20809 37766 ft 484 kts 321°
2026-05-07 17:35 58.27991 -6.28263 37755 ft 483 kts 319°
2026-05-07 17:36 58.33418 -6.35714 37765 ft 482 kts 319°
2026-05-07 17:36 58.38856 -6.43206 37751 ft 482 kts 319°
2026-05-07 17:37 58.44275 -6.50701 37737 ft 482 kts 320°
2026-05-07 17:37 58.49684 -6.58209 37738 ft 482 kts 320°
2026-05-07 17:38 58.55099 -6.65754 37735 ft 482 kts 319°
2026-05-07 17:38 58.60468 -6.73263 37730 ft 481 kts 319°
2026-05-07 17:39 58.65846 -6.80814 37709 ft 480 kts 319°
2026-05-07 17:39 58.71220 -6.88387 37702 ft 480 kts 319°
2026-05-07 17:40 58.76560 -6.95943 37696 ft 479 kts 319°
2026-05-07 17:40 58.81922 -7.03559 37696 ft 480 kts 319°
2026-05-07 17:41 58.87299 -7.11227 37684 ft 480 kts 319°
2026-05-07 17:41 58.92638 -7.18868 37674 ft 480 kts 319°
2026-05-07 17:42 58.97986 -7.26553 37678 ft 480 kts 319°
2026-05-07 17:42 59.03327 -7.34260 37657 ft 480 kts 319°
2026-05-07 17:43 59.08678 -7.42010 37664 ft 479 kts 319°
2026-05-07 17:43 59.13986 -7.49728 37658 ft 479 kts 319°
2026-05-07 17:44 59.19309 -7.57500 37646 ft 479 kts 319°
2026-05-07 17:44 59.24633 -7.65304 37634 ft 480 kts 318°
2026-05-07 17:45 59.29989 -7.73188 37634 ft 481 kts 319°
2026-05-07 17:45 59.35338 -7.81091 37621 ft 481 kts 319°
2026-05-07 17:46 59.40654 -7.88978 37607 ft 481 kts 319°
2026-05-07 17:46 59.45950 -7.96866 37617 ft 480 kts 319°
2026-05-07 17:47 59.51289 -8.04851 37614 ft 480 kts 319°
2026-05-07 17:47 59.56591 -8.12814 37617 ft 481 kts 319°
2026-05-07 17:48 59.61937 -8.20874 37617 ft 481 kts 319°
2026-05-07 17:48 59.67233 -8.28892 37616 ft 481 kts 319°
2026-05-07 17:49 59.72541 -8.36962 37609 ft 482 kts 319°
2026-05-07 17:49 59.77867 -8.45092 37607 ft 481 kts 319°
2026-05-07 17:50 59.83184 -8.53242 37600 ft 481 kts 319°
2026-05-07 17:50 59.88474 -8.61385 37587 ft 481 kts 319°
2026-05-07 17:51 59.93776 -8.69581 37586 ft 481 kts 318°
2026-05-07 17:51 59.99099 -8.77842 37585 ft 481 kts 319°
2026-05-07 17:52 60.04340 -8.86010 37582 ft 481 kts 318°
2026-05-07 17:52 60.09631 -8.94290 37575 ft 481 kts 319°
2026-05-07 17:53 60.14888 -9.02552 37576 ft 481 kts 319°
2026-05-07 17:53 60.20146 -9.10849 37563 ft 481 kts 319°
2026-05-07 17:54 60.25355 -9.19106 37558 ft 481 kts 319°
2026-05-07 17:54 60.30607 -9.27463 37556 ft 481 kts 319°
2026-05-07 17:55 60.35887 -9.35901 37563 ft 481 kts 319°
2026-05-07 17:55 60.41166 -9.44373 37563 ft 481 kts 319°
2026-05-07 17:56 60.46328 -9.52953 37565 ft 480 kts 315°
2026-05-07 17:56 60.51290 -9.61974 37574 ft 480 kts 316°
2026-05-07 17:57 60.55428 -9.69520 37570 ft 480 kts 315°
2026-05-07 17:57 60.61213 -9.80111 37571 ft 480 kts 315°
2026-05-07 17:58 60.66169 -9.89223 37565 ft 480 kts 315°
2026-05-07 17:58 60.71097 -9.98322 37560 ft 480 kts 315°
2026-05-07 17:59 60.76034 -10.07476 37565 ft 480 kts 315°
2026-05-07 17:59 60.80960 -10.16649 37569 ft 481 kts 315°
2026-05-07 18:00 60.85888 -10.25863 37569 ft 481 kts 315°
2026-05-07 18:00 60.90836 -10.35157 37567 ft 481 kts 315°
2026-05-07 18:01 60.95720 -10.44368 37579 ft 480 kts 315°
2026-05-07 18:01 61.00621 -10.53653 37569 ft 480 kts 315°
2026-05-07 18:02 61.07970 -10.67650 37591 ft 480 kts 315°
2026-05-07 18:03 61.12875 -10.77046 37592 ft 480 kts 315°
2026-05-07 18:03 61.17756 -10.86435 37608 ft 480 kts 315°
2026-05-07 18:04 61.22612 -10.95819 37611 ft 480 kts 315°
2026-05-07 18:04 61.27521 -11.05347 37623 ft 480 kts 315°
2026-05-07 18:05 61.32350 -11.14761 37633 ft 480 kts 315°
2026-05-07 18:05 61.37207 -11.24273 37638 ft 481 kts 315°
2026-05-07 18:06 61.42077 -11.33852 37659 ft 480 kts 315°
2026-05-07 18:06 61.46909 -11.43400 37681 ft 479 kts 315°
2026-05-07 18:07 61.51775 -11.53059 37675 ft 480 kts 315°
2026-05-07 18:07 61.56597 -11.62675 37687 ft 480 kts 315°
2026-05-07 18:08 61.61425 -11.72344 37696 ft 480 kts 315°
2026-05-07 18:08 61.66219 -11.81990 37691 ft 480 kts 315°
2026-05-07 18:09 61.71038 -11.91730 37721 ft 479 kts 315°
2026-05-07 18:09 61.75803 -12.01406 37732 ft 479 kts 315°
2026-05-07 18:10 61.80602 -12.11192 37725 ft 479 kts 315°
2026-05-07 18:10 61.85366 -12.20955 37750 ft 478 kts 315°
2026-05-07 18:11 61.90117 -12.30736 37796 ft 478 kts 315°
2026-05-07 18:11 61.94878 -12.40580 37806 ft 478 kts 315°
2026-05-07 18:12 61.99644 -12.50480 37792 ft 479 kts 315°
2026-05-07 18:12 62.04416 -12.60439 37820 ft 477 kts 315°
2026-05-07 18:13 62.09140 -12.70346 37837 ft 477 kts 314°
2026-05-07 18:13 62.13829 -12.80221 37844 ft 477 kts 314°
2026-05-07 18:14 62.18562 -12.90238 37855 ft 477 kts 314°
2026-05-07 18:14 62.23275 -13.00257 37870 ft 477 kts 315°
2026-05-07 18:15 62.27951 -13.10245 37881 ft 477 kts 315°
2026-05-07 18:15 62.32639 -13.20304 37887 ft 477 kts 314°
2026-05-07 18:16 62.37308 -13.30371 37895 ft 477 kts 314°
2026-05-07 18:16 62.42001 -13.40537 37902 ft 477 kts 314°
2026-05-07 18:17 62.46685 -13.50730 37913 ft 476 kts 314°
2026-05-07 18:17 62.51324 -13.60875 37902 ft 476 kts 315°
2026-05-07 18:18 62.55951 -13.71039 37920 ft 475 kts 314°
2026-05-07 18:18 62.60572 -13.81238 37930 ft 476 kts 314°
2026-05-07 18:19 62.65202 -13.91507 37936 ft 476 kts 314°
2026-05-07 18:19 62.69826 -14.01812 37932 ft 477 kts 314°
2026-05-07 18:20 62.74455 -14.12178 37951 ft 476 kts 314°
2026-05-07 18:20 62.79050 -14.22514 37954 ft 476 kts 314°
2026-05-07 18:21 62.83640 -14.32891 37964 ft 475 kts 314°
2026-05-07 18:21 62.88222 -14.43300 37977 ft 475 kts 314°
2026-05-07 18:22 62.92807 -14.53763 37995 ft 475 kts 314°
2026-05-07 18:22 62.97362 -14.64210 37996 ft 475 kts 314°
2026-05-07 18:23 63.01937 -14.74753 37993 ft 475 kts 313°
2026-05-07 18:23 63.06503 -14.85328 38009 ft 475 kts 313°
2026-05-07 18:24 63.11047 -14.95902 38018 ft 475 kts 313°
2026-05-07 18:24 63.15439 -15.06172 38040 ft 475 kts 314°
2026-05-07 18:25 63.19960 -15.16793 38022 ft 476 kts 313°
2026-05-07 18:25 63.24484 -15.27475 38043 ft 475 kts 314°
2026-05-07 18:26 63.28998 -15.38185 38045 ft 474 kts 314°
2026-05-07 18:26 63.33483 -15.48879 38060 ft 473 kts 314°
2026-05-07 18:27 63.37964 -15.59617 38062 ft 473 kts 314°
2026-05-07 18:27 63.42419 -15.70342 38070 ft 474 kts 313°
2026-05-07 18:28 63.46884 -15.81148 38072 ft 474 kts 313°
2026-05-07 18:28 63.51341 -15.91988 38095 ft 473 kts 313°
2026-05-07 18:29 63.55779 -16.02835 38089 ft 473 kts 313°
2026-05-07 18:29 63.60215 -16.13728 38094 ft 473 kts 313°
2026-05-07 18:30 63.64630 -16.24626 38097 ft 472 kts 313°
2026-05-07 18:30 63.69035 -16.35553 38096 ft 472 kts 313°
2026-05-07 18:31 63.73457 -16.46578 38091 ft 472 kts 313°
2026-05-07 18:31 63.77966 -16.57302 38090 ft 471 kts 320°
2026-05-07 18:32 63.83330 -16.65733 37995 ft 469 kts 332°
2026-05-07 18:32 63.86251 -16.68746 37530 ft 462 kts 339°
2026-05-07 18:32 63.89241 -16.71251 37023 ft 457 kts 340°
2026-05-07 18:32 63.92239 -16.73749 36464 ft 454 kts 340°
2026-05-07 18:33 63.95233 -16.76255 35874 ft 451 kts 340°
2026-05-07 18:33 63.98186 -16.78732 35276 ft 449 kts 340°
2026-05-07 18:33 64.01098 -16.81180 34678 ft 446 kts 340°
2026-05-07 18:33 64.03973 -16.83602 34093 ft 444 kts 340°
2026-05-07 18:34 64.06842 -16.86027 33506 ft 441 kts 340°
2026-05-07 18:34 64.09697 -16.88443 33035 ft 438 kts 340°
2026-05-07 18:34 64.12543 -16.90858 32532 ft 436 kts 340°
2026-05-07 18:34 64.15369 -16.93261 32046 ft 435 kts 340°
2026-05-07 18:35 64.17934 -16.95446 31596 ft 435 kts 340°
2026-05-07 18:35 64.20741 -16.97843 31061 ft 435 kts 340°
2026-05-07 18:35 64.23571 -17.00265 30340 ft 434 kts 340°
2026-05-07 18:35 64.26091 -17.02426 29689 ft 432 kts 340°
2026-05-07 18:36 64.28888 -17.04829 28985 ft 429 kts 340°
2026-05-07 18:36 64.31654 -17.07211 28333 ft 424 kts 340°
2026-05-07 18:36 64.34387 -17.09571 27695 ft 419 kts 340°
2026-05-07 18:36 64.37092 -17.11911 27079 ft 411 kts 340°
2026-05-07 18:37 64.39711 -17.14183 26555 ft 402 kts 340°
2026-05-07 18:37 64.42276 -17.16412 25987 ft 394 kts 340°
2026-05-07 18:37 64.44799 -17.18609 25445 ft 386 kts 340°
2026-05-07 18:37 64.47286 -17.20779 24935 ft 378 kts 340°
2026-05-07 18:38 64.49702 -17.22890 24422 ft 370 kts 340°
2026-05-07 18:38 64.52092 -17.24983 23937 ft 363 kts 341°
2026-05-07 18:38 64.54434 -17.27038 23466 ft 363 kts 341°
2026-05-07 18:38 64.56794 -17.29111 22987 ft 363 kts 341°
2026-05-07 18:39 64.59120 -17.31159 22523 ft 361 kts 341°
2026-05-07 18:39 64.61465 -17.33226 22050 ft 358 kts 341°
2026-05-07 18:39 64.63783 -17.35274 21580 ft 356 kts 341°
2026-05-07 18:39 64.66083 -17.37310 21116 ft 353 kts 341°
2026-05-07 18:40 64.68338 -17.39309 20669 ft 350 kts 341°
2026-05-07 18:40 64.70603 -17.41321 20212 ft 347 kts 341°
2026-05-07 18:40 64.72847 -17.43317 19770 ft 344 kts 341°
2026-05-07 18:40 64.75064 -17.45294 19330 ft 341 kts 341°
2026-05-07 18:41 64.77285 -17.47278 18892 ft 339 kts 341°
2026-05-07 18:41 64.79461 -17.49224 18452 ft 337 kts 341°
2026-05-07 18:41 64.81628 -17.51166 18021 ft 334 kts 341°
2026-05-07 18:41 64.83792 -17.53108 17596 ft 332 kts 341°
2026-05-07 18:42 64.85944 -17.55042 17170 ft 329 kts 341°
2026-05-07 18:42 64.88062 -17.56950 16745 ft 327 kts 341°
2026-05-07 18:42 64.90173 -17.58854 16326 ft 325 kts 341°
2026-05-07 18:42 64.92259 -17.60739 15911 ft 323 kts 341°
2026-05-07 18:43 64.94344 -17.62627 15496 ft 321 kts 341°
2026-05-07 18:43 64.96429 -17.64516 15076 ft 319 kts 341°
2026-05-07 18:43 64.98479 -17.66378 14671 ft 317 kts 341°
2026-05-07 18:43 65.00415 -17.68140 14280 ft 315 kts 341°
2026-05-07 18:44 65.02499 -17.70039 13853 ft 313 kts 341°
2026-05-07 18:44 65.04543 -17.71903 13428 ft 311 kts 341°
2026-05-07 18:44 65.06544 -17.73731 13014 ft 309 kts 341°
2026-05-07 18:44 65.08529 -17.75548 12604 ft 307 kts 341°
2026-05-07 18:45 65.10508 -17.77364 12186 ft 300 kts 341°
2026-05-07 18:45 65.12421 -17.79121 11787 ft 294 kts 341°
2026-05-07 18:45 65.14297 -17.80849 11399 ft 287 kts 341°
2026-05-07 18:45 65.16145 -17.82552 11014 ft 280 kts 341°
2026-05-07 18:46 65.17928 -17.84198 10645 ft 273 kts 341°
2026-05-07 18:46 65.19673 -17.85812 10284 ft 268 kts 341°
2026-05-07 18:46 65.21403 -17.87413 9918 ft 263 kts 341°
2026-05-07 18:46 65.23094 -17.88979 9564 ft 262 kts 341°
2026-05-07 18:47 65.24796 -17.90556 9208 ft 261 kts 341°
2026-05-07 18:47 65.26476 -17.92115 8862 ft 260 kts 341°
2026-05-07 18:47 65.28133 -17.93656 8526 ft 254 kts 341°
2026-05-07 18:47 65.29768 -17.95181 8199 ft 249 kts 341°
2026-05-07 18:48 65.31358 -17.96665 7874 ft 243 kts 341°
2026-05-07 18:48 65.32916 -17.98121 7548 ft 239 kts 342°
2026-05-07 18:48 65.34435 -17.99542 7260 ft 233 kts 342°
2026-05-07 18:48 65.35944 -18.00953 6790 ft 236 kts 342°
2026-05-07 18:49 65.37470 -18.02380 6444 ft 232 kts 342°
2026-05-07 18:49 65.38954 -18.03774 6132 ft 228 kts 341°
2026-05-07 18:49 65.40421 -18.05039 5881 ft 219 kts 351°
2026-05-07 18:49 65.41874 -18.05314 5860 ft 202 kts
2026-05-07 18:50 65.43233 -18.05358 5889 ft 184 kts
2026-05-07 18:50 65.44429 -18.05441 5905 ft 161 kts
2026-05-07 18:50 65.45526 -18.05523 5874 ft 156 kts
2026-05-07 18:50 65.46600 -18.05600 5856 ft 154 kts
2026-05-07 18:51 65.47673 -18.05676 5860 ft 152 kts
2026-05-07 18:51 65.48694 -18.05756 5717 ft 138 kts
2026-05-07 18:51 65.49586 -18.05832 5422 ft 123 kts
2026-05-07 18:51 65.50427 -18.05895 5059 ft 120 kts
2026-05-07 18:52 65.51238 -18.05951 4744 ft 115 kts
2026-05-07 18:52 65.52041 -18.06007 4471 ft 115 kts
2026-05-07 18:52 65.52831 -18.06061 4203 ft 115 kts
2026-05-07 18:52 65.53634 -18.06119 3920 ft 115 kts
2026-05-07 18:53 65.54427 -18.06178 3639 ft 115 kts
2026-05-07 18:53 65.55222 -18.06239 3353 ft 114 kts
2026-05-07 18:53 65.56005 -18.06299 3078 ft 113 kts
2026-05-07 18:53 65.56782 -18.06358 2805 ft 113 kts
2026-05-07 18:54 65.57568 -18.06417 2527 ft 112 kts
2026-05-07 18:54 65.58343 -18.06475 2253 ft 112 kts
2026-05-07 18:54 65.59124 -18.06533 1976 ft 112 kts
2026-05-07 18:54 65.59895 -18.06591 1700 ft 112 kts
2026-05-07 18:55 65.60680 -18.06627 1416 ft 112 kts
2026-05-07 18:55 65.61471 -18.06613 1059 ft 118 kts
2026-05-07 18:55 65.62273 -18.06630 711 ft 112 kts 358°
2026-05-07 18:55 65.63044 -18.06734 489 ft 120 kts 358°
2026-05-07 18:56 65.63841 -18.06866 243 ft 106 kts 356°
2026-05-07 18:56 65.64589 -18.07002 12 ft 117 kts 356°
2026-05-07 18:56 65.65317 -18.07137 -45 ft 83 kts 355°
2026-05-07 18:56 65.65630 -18.07175 -45 ft 8 kts 359°
2026-05-07 18:57 65.65588 -18.07196 -45 ft 17 kts 172°
2026-05-07 18:57 65.65487 -18.07200 -45 ft 11 kts 229°
2026-05-07 18:57 65.65472 -18.07391 -45 ft 8 kts 245°
2026-05-07 18:57 65.65413 -18.07425 -45 ft 8 kts 248°
2026-05-07 18:58 65.65420 -18.07498 -44 ft 0 kts 329°
2026-05-07 18:58 65.65425 -18.07498 -44 ft 0 kts
2026-05-07 18:58 65.65426 -18.07498 -44 ft 0 kts